TimePDT,TemperatureF,Dew PointF,Humidity,Sea Level PressureIn,VisibilityMPH,Wind Direction,Wind SpeedMPH,Gust SpeedMPH,PrecipitationIn,Events,Conditions,WindDirDegrees,DateUTC
12:55 AM,52.0,48.9,89,30.16,10.0,Variable,3.5,-,N/A,,Scattered Clouds,0,2013-07-13 07:55:00
1:55 AM,48.9,46.9,93,30.16,10.0,ESE,3.5,-,N/A,,Clear,120,2013-07-13 08:55:00
2:55 AM,48.0,46.0,93,30.17,10.0,East,3.5,-,N/A,,Partly Cloudy,90,2013-07-13 09:55:00
3:14 AM,46.4,46.4,100,30.17,2.5,ESE,3.5,-,N/A,,Scattered Clouds,120,2013-07-13 10:14:00
3:18 AM,46.4,46.4,100,30.17,3.0,SE,3.5,-,N/A,,Mostly Cloudy,140,2013-07-13 10:18:00
3:29 AM,46.4,46.4,100,30.17,10.0,Calm,Calm,-,N/A,,Scattered Clouds,0,2013-07-13 10:29:00
3:55 AM,46.9,45.0,93,30.17,10.0,SE,3.5,-,N/A,,Scattered Clouds,130,2013-07-13 10:55:00
4:05 AM,46.4,44.6,93,30.17,2.5,ESE,4.6,-,N/A,,Mostly Cloudy,110,2013-07-13 11:05:00
4:08 AM,46.4,44.6,93,30.17,1.2,East,3.5,-,N/A,,Mostly Cloudy,100,2013-07-13 11:08:00
4:17 AM,46.4,46.4,100,30.17,2.0,ESE,4.6,-,N/A,,Mostly Cloudy,120,2013-07-13 11:17:00
4:24 AM,46.4,46.4,100,30.17,10.0,ESE,4.6,-,N/A,,Mostly Cloudy,120,2013-07-13 11:24:00
4:55 AM,46.9,45.0,93,30.17,10.0,SE,3.5,-,N/A,,Mostly Cloudy,140,2013-07-13 11:55:00
5:55 AM,46.0,45.0,96,30.18,10.0,ESE,4.6,-,N/A,,Mostly Cloudy,120,2013-07-13 12:55:00
6:27 AM,46.4,44.6,93,30.18,10.0,SE,4.6,-,N/A,,Partly Cloudy,140,2013-07-13 13:27:00
6:55 AM,46.0,45.0,96,30.19,10.0,Calm,Calm,-,N/A,,Clear,0,2013-07-13 13:55:00
7:55 AM,51.1,48.9,92,30.19,10.0,South,3.5,-,N/A,,Clear,170,2013-07-13 14:55:00
8:55 AM,59.0,51.1,75,30.20,10.0,Calm,Calm,-,N/A,,Scattered Clouds,0,2013-07-13 15:55:00
9:09 AM,59.0,50.0,72,30.19,10.0,Variable,4.6,-,N/A,,Mostly Cloudy,0,2013-07-13 16:09:00
9:26 AM,60.8,51.8,72,30.20,10.0,North,4.6,-,N/A,,Scattered Clouds,350,2013-07-13 16:26:00
9:33 AM,60.8,51.8,72,30.20,10.0,North,4.6,-,N/A,,Mostly Cloudy,350,2013-07-13 16:33:00
9:42 AM,60.8,50.0,68,30.20,10.0,Variable,5.8,-,N/A,,Partly Cloudy,0,2013-07-13 16:42:00
9:55 AM,60.1,51.1,72,30.19,10.0,NNW,8.1,-,N/A,,Mostly Cloudy,330,2013-07-13 16:55:00
10:07 AM,60.8,51.8,72,30.19,10.0,North,8.1,-,N/A,,Scattered Clouds,350,2013-07-13 17:07:00
10:14 AM,60.8,50.0,68,30.20,10.0,Variable,3.5,-,N/A,,Mostly Cloudy,0,2013-07-13 17:14:00
10:23 AM,60.8,50.0,68,30.20,10.0,Variable,3.5,-,N/A,,Scattered Clouds,0,2013-07-13 17:23:00
10:55 AM,62.1,51.1,67,30.19,10.0,North,6.9,-,N/A,,Clear,360,2013-07-13 17:55:00
11:55 AM,64.0,52.0,65,30.18,10.0,NNW,8.1,-,N/A,,Clear,340,2013-07-13 18:55:00
12:55 PM,64.9,53.1,65,30.18,10.0,NNW,15.0,-,N/A,,Clear,330,2013-07-13 19:55:00
1:55 PM,66.0,54.0,65,30.17,10.0,NW,13.8,-,N/A,,Clear,310,2013-07-13 20:55:00
2:55 PM,68.0,54.0,61,30.17,10.0,WNW,11.5,-,N/A,,Clear,300,2013-07-13 21:55:00
3:55 PM,64.0,53.1,67,30.16,10.0,NW,19.6,-,N/A,,Clear,310,2013-07-13 22:55:00
4:55 PM,64.0,53.1,67,30.14,10.0,NW,19.6,26.5,N/A,,Clear,310,2013-07-13 23:55:00
5:55 PM,63.0,54.0,72,30.14,10.0,NW,18.4,-,N/A,,Clear,310,2013-07-14 00:55:00
6:55 PM,62.1,54.0,75,30.14,10.0,NW,18.4,-,N/A,,Clear,310,2013-07-14 01:55:00
7:55 PM,60.1,53.1,78,30.13,10.0,NW,16.1,-,N/A,,Clear,310,2013-07-14 02:55:00
8:55 PM,57.9,53.1,84,30.13,10.0,NW,13.8,23.0,N/A,,Clear,310,2013-07-14 03:55:00
9:55 PM,57.0,53.1,87,30.13,10.0,WNW,8.1,-,N/A,,Clear,290,2013-07-14 04:55:00
10:55 PM,54.0,52.0,93,30.14,10.0,WSW,3.5,-,N/A,,Clear,250,2013-07-14 05:55:00
11:55 PM,54.0,51.1,90,30.14,10.0,West,4.6,-,N/A,,Clear,270,2013-07-14 06:55:00